Regional Weather Roundup
Issued by NWS

Home | Current Version | Previous Version | Text Only | Print | Product List | Glossary Off
Versions: 1 2 3 4 5 6 7 8 9 10 11 12 13 14 15 16 17 18 19 20 21 22 23 24 25 26 27 28

000
ASUS45 KCYS 280610
RWRWY

WYOMING REGIONAL WEATHER ROUNDUP
NATIONAL WEATHER SERVICE CHEYENNE WY
1200 AM MDT TUE MAR 28 2017

NOTE:  "FAIR" INDICATES FEW OR NO CLOUDS BELOW 12,000 FEET
WITH NO SIGNIFICANT WEATHER AND/OR OBSTRUCTIONS TO VISIBILITY.

WYZ001-280700-
YELLOWSTONE NATIONAL PARK

CITY           SKY/WX    TMP DP  RH WIND       PRES   REMARKS
LK YELLOWSTONE   N/A     28  27  96 CALM      30.03S
6HR MIN TEMP:  27; 6HR MAX TEMP:  31; 6HR PCP:  0.07;

W YELLOWSTONE  NOT AVBL

$$
WYZ002>013-054>058-071-098>099-280700-
NORTHERN WYOMING

CITY           SKY/WX    TMP DP  RH WIND       PRES   REMARKS
JACKSON        FAIR      32  30  93 NE6       30.00R WCI  26
CODY           LGT RAIN  41  35  79 NW6       29.99R
GREYBULL       FAIR      46  35  65 NW21      29.89R
6HR MIN TEMP:  46; 6HR MAX TEMP:  62;

WORLAND        CLOUDY    47  36  65 NW13      29.91R
6HR MIN TEMP:  47; 6HR MAX TEMP:  59;

SHERIDAN       MOCLDY    43  38  82 W7        29.93S
6HR MIN TEMP:  43; 6HR MAX TEMP:  58;

BUFFALO        CLOUDY    44  34  67 W9        29.94S
6HR MIN TEMP:  43; 6HR MAX TEMP:  54; 6HR PCP: TRACE;

GILLETTE       FAIR      35  32  88 SW3       29.91S
HULETT         FAIR      41  34  75 CALM      29.93S
NEWCASTLE      FAIR      46  32  57 E10G21    29.91R

$$
WYZ014>020-022>026-101>103-280700-
CENTRAL WYOMING

CITY           SKY/WX    TMP DP  RH WIND       PRES   REMARKS
BIG PINEY      CLOUDY    34  28  79 N10       29.96S WCI  26
6HR MIN TEMP:  34; 6HR MAX TEMP:  41;

PINEDALE       CLOUDY    34  30  86 NW13      29.95F WCI  25
DUBOIS         LGT SNOW  32  30  93 NW5       29.96S WCI  27
LANDER         LGT RAIN  41  35  79 N5        29.92R
6HR MIN TEMP:  41; 6HR MAX TEMP:  52; 6HR PCP:  0.01;

RIVERTON       LGT RAIN  41  36  82 N9        29.93R
6HR MIN TEMP:  40; 6HR MAX TEMP:  53; 6HR PCP:  0.04;

CASPER         CLOUDY    45  32  60 N12       29.88R
6HR MIN TEMP:  44; 6HR MAX TEMP:  55;

DOUGLAS        CLOUDY    47  33  58 E10       29.89R
6HR MIN TEMP:  47; 6HR MAX TEMP:  59;


$$
WYZ021-027>030-104>119-280700-
SOUTHERN WYOMING

CITY           SKY/WX    TMP DP  RH WIND       PRES   REMARKS
EVANSTON       MOCLDY    31  28  89 N16       29.96F WCI  20
6HR MIN TEMP:  31; 6HR MAX TEMP:  33;

KEMMERER         N/A     32  28  86 NW14      29.95R WCI  22
FORT BRIDGER   CLOUDY    33  33 100 W7        29.98S WCI  27
ROCK SPRINGS   LGT RAIN  37  33  85 NE6       29.91R WCI  32
6HR MIN TEMP:  36; 6HR MAX TEMP:  39; 6HR PCP:  0.01;

DIXON            N/A     37  34  90 NE5       29.88S WCI  33
RAWLINS        CLOUDY    37  35  92 E8        29.89F WCI  31
6HR MIN TEMP:  36; 6HR MAX TEMP:  43; 6HR PCP:  0.06;

SARATOGA       CLOUDY    34  34 100 CALM      29.90S
LARAMIE        CLOUDY    33  32  96 NW7       29.89R WCI  27
6HR MIN TEMP:  32; 6HR MAX TEMP:  47; 6HR PCP:  0.07;

CHEYENNE       LGT RAIN  43  39  86 SE7       29.88S
6HR MIN TEMP:  42; 6HR MAX TEMP:  54; 6HR PCP:  0.11;

TORRINGTON     LGT RAIN  46  45  96 W8        29.88F
6HR MIN TEMP:  46; 6HR MAX TEMP:  62; 6HR PCP:  0.28;

PINE BLUFFS    CLOUDY    43  43 100 S13       29.90S

$$




USA.gov is the U.S. government's official web portal to all federal, state and local government web resources and services.